Time,TemperatureF,DewpointF,PressureIn,WindDirection,WindDirectionDegrees,WindSpeedMPH,WindSpeedGustMPH,Humidity,HourlyPrecipIn,Conditions,Clouds,dailyrainin,SoftwareType,DateUTC
2013-06-25 00:00:00,67.4,67.4,29.98,NNW,337,0.0,0.0,100,0.00,RA,,0.00,WeatherDisplay:10.37,2013-06-25 04:00:00,
2013-06-25 00:05:00,67.4,67.4,29.97,NNW,337,0.0,0.0,100,0.00,RA,,0.00,WeatherDisplay:10.37,2013-06-25 04:05:00,
2013-06-25 00:10:00,67.4,67.4,29.96,NNW,337,0.0,3.0,100,0.00,CLR,,0.00,WeatherDisplay:10.37,2013-06-25 04:10:00,
2013-06-25 00:15:00,67.4,67.4,29.96,NNW,327,0.0,0.0,100,0.00,CLR,,0.00,WeatherDisplay:10.37,2013-06-25 04:15:00,
2013-06-25 00:20:00,67.3,67.3,29.95,NW,319,0.0,0.0,100,0.00,CLR,,0.00,WeatherDisplay:10.37,2013-06-25 04:20:00,
2013-06-25 00:25:00,67.3,67.3,29.95,NW,319,0.0,0.0,100,0.00,CLR,,0.00,WeatherDisplay:10.37,2013-06-25 04:25:00,
2013-06-25 00:30:00,67.2,67.2,29.95,NW,319,0.0,0.0,100,0.00,CLR,,0.00,WeatherDisplay:10.37,2013-06-25 04:30:00,
2013-06-25 00:40:00,67.1,67.1,29.94,NW,319,0.0,0.0,100,0.00,CLR,,0.00,WeatherDisplay:10.37,2013-06-25 04:40:00,
2013-06-25 00:45:00,67.1,67.1,29.94,NW,319,0.0,0.0,100,0.01,RA,,0.01,WeatherDisplay:10.37,2013-06-25 04:45:00,
2013-06-25 00:55:00,67.1,67.1,29.94,NW,319,0.0,0.0,100,0.00,CLR,,0.01,WeatherDisplay:10.37,2013-06-25 04:55:00,
2013-06-25 01:00:00,67.1,67.1,29.94,NW,319,0.0,0.0,100,0.00,CLR,,0.01,WeatherDisplay:10.37,2013-06-25 05:00:00,
2013-06-25 01:10:00,67.0,67.0,29.93,NW,319,0.0,0.0,100,0.00,CLR,,0.01,WeatherDisplay:10.37,2013-06-25 05:10:00,
2013-06-25 01:15:00,67.0,67.0,29.93,NW,319,0.0,0.0,100,0.00,CLR,,0.01,WeatherDisplay:10.37,2013-06-25 05:15:00,
2013-06-25 01:25:00,66.9,66.9,29.93,NW,319,0.0,0.0,100,0.00,CLR,,0.01,WeatherDisplay:10.37,2013-06-25 05:25:00,
2013-06-25 01:30:00,67.0,67.0,29.93,NW,319,0.0,0.0,100,0.00,CLR,,0.01,WeatherDisplay:10.37,2013-06-25 05:30:00,
2013-06-25 01:40:00,67.0,67.0,29.93,NW,319,0.0,0.0,100,0.00,CLR,,0.01,WeatherDisplay:10.37,2013-06-25 05:40:00,
2013-06-25 01:45:00,66.9,66.9,29.93,NW,319,0.0,0.0,100,0.00,CLR,,0.01,WeatherDisplay:10.37,2013-06-25 05:45:00,
2013-06-25 01:55:00,66.8,66.8,29.93,NW,319,0.0,0.0,100,0.00,CLR,,0.01,WeatherDisplay:10.37,2013-06-25 05:55:00,
2013-06-25 02:00:00,66.8,66.8,29.92,NW,319,0.0,0.0,100,0.00,CLR,,0.01,WeatherDisplay:10.37,2013-06-25 06:00:00,
2013-06-25 02:10:00,66.8,66.8,29.93,NW,319,0.0,0.0,100,0.00,CLR,,0.01,WeatherDisplay:10.37,2013-06-25 06:10:00,
2013-06-25 02:15:00,66.7,66.7,29.93,NW,319,0.0,3.0,100,0.00,CLR,,0.01,WeatherDisplay:10.37,2013-06-25 06:15:00,
2013-06-25 02:25:00,66.7,66.7,29.93,North,7,0.0,5.0,100,0.00,CLR,,0.01,WeatherDisplay:10.37,2013-06-25 06:25:00,
2013-06-25 02:30:00,66.7,66.7,29.93,NNE,12,0.0,3.0,100,0.00,CLR,,0.01,WeatherDisplay:10.37,2013-06-25 06:30:00,
2013-06-25 02:40:00,66.5,66.5,29.93,North,360,0.0,0.0,100,0.00,CLR,,0.01,WeatherDisplay:10.37,2013-06-25 06:40:00,
2013-06-25 02:45:00,66.4,66.4,29.92,North,360,0.0,0.0,100,0.00,CLR,,0.01,WeatherDisplay:10.37,2013-06-25 06:45:00,
2013-06-25 02:55:00,66.2,66.3,29.92,North,6,0.0,5.0,100,0.00,CLR,,0.01,WeatherDisplay:10.37,2013-06-25 06:55:00,
2013-06-25 03:00:00,66.2,66.2,29.92,NNE,13,0.0,5.0,100,0.00,CLR,,0.01,WeatherDisplay:10.37,2013-06-25 07:00:00,
2013-06-25 03:10:00,66.2,66.2,29.93,NNE,16,0.0,3.0,100,0.00,CLR,,0.01,WeatherDisplay:10.37,2013-06-25 07:10:00,
2013-06-25 03:15:00,66.2,66.2,29.92,North,8,0.0,0.0,100,0.00,CLR,,0.01,WeatherDisplay:10.37,2013-06-25 07:15:00,
2013-06-25 03:25:00,66.2,66.2,29.92,North,4,0.0,0.0,100,0.00,CLR,,0.01,WeatherDisplay:10.37,2013-06-25 07:25:00,
2013-06-25 03:30:00,66.2,66.2,29.92,North,4,0.0,0.0,100,0.00,CLR,,0.01,WeatherDisplay:10.37,2013-06-25 07:30:00,
2013-06-25 03:40:00,66.0,66.0,29.93,North,4,0.0,0.0,100,0.00,CLR,,0.01,WeatherDisplay:10.37,2013-06-25 07:40:00,
2013-06-25 03:45:00,66.0,66.0,29.93,North,4,0.0,0.0,100,0.00,CLR,,0.01,WeatherDisplay:10.37,2013-06-25 07:45:00,
2013-06-25 03:55:00,65.9,65.9,29.92,NNE,13,0.0,5.0,100,0.00,CLR,,0.01,WeatherDisplay:10.37,2013-06-25 07:55:00,
2013-06-25 04:00:00,65.9,65.9,29.92,NNE,17,1.0,8.0,100,0.00,CLR,,0.01,WeatherDisplay:10.37,2013-06-25 08:00:00,
2013-06-25 04:10:00,66.0,66.0,29.92,NNE,14,0.0,0.0,100,0.00,CLR,,0.01,WeatherDisplay:10.37,2013-06-25 08:10:00,
2013-06-25 04:15:00,65.9,65.9,29.91,NNE,17,0.0,0.0,100,0.00,CLR,,0.01,WeatherDisplay:10.37,2013-06-25 08:15:00,
2013-06-25 04:25:00,65.8,65.8,29.92,NNE,17,0.0,0.0,100,0.00,CLR,,0.01,WeatherDisplay:10.37,2013-06-25 08:25:00,
2013-06-25 04:30:00,65.8,65.8,29.92,NNE,17,0.0,0.0,100,0.00,CLR,,0.01,WeatherDisplay:10.37,2013-06-25 08:30:00,
2013-06-25 04:40:00,65.6,65.6,29.92,NNE,17,0.0,0.0,100,0.00,CLR,,0.01,WeatherDisplay:10.37,2013-06-25 08:40:00,
2013-06-25 04:45:00,65.4,65.4,29.92,NNE,17,0.0,0.0,100,0.00,CLR,,0.01,WeatherDisplay:10.37,2013-06-25 08:45:00,
2013-06-25 04:55:00,65.4,65.4,29.92,NNE,17,0.0,0.0,100,0.00,CLR,,0.01,WeatherDisplay:10.37,2013-06-25 08:55:00,
2013-06-25 05:00:00,65.3,65.3,29.92,NNE,17,0.0,0.0,100,0.00,CLR,,0.01,WeatherDisplay:10.37,2013-06-25 09:00:00,
2013-06-25 05:10:00,65.3,65.3,29.92,NNE,17,0.0,0.0,100,0.00,CLR,,0.01,WeatherDisplay:10.37,2013-06-25 09:10:00,
2013-06-25 05:15:00,65.3,65.3,29.92,NNE,17,0.0,0.0,100,0.00,CLR,,0.01,WeatherDisplay:10.37,2013-06-25 09:15:00,
2013-06-25 05:25:00,65.4,65.4,29.91,NNE,17,0.0,0.0,100,0.00,CLR,,0.01,WeatherDisplay:10.37,2013-06-25 09:25:00,
2013-06-25 05:30:00,65.4,65.4,29.91,NNE,17,0.0,0.0,100,0.00,CLR,,0.01,WeatherDisplay:10.37,2013-06-25 09:30:00,
2013-06-25 05:40:00,65.6,65.6,29.91,NNE,17,0.0,0.0,100,0.00,CLR,,0.01,WeatherDisplay:10.37,2013-06-25 09:40:00,
2013-06-25 05:45:00,65.6,65.6,29.91,NNE,17,0.0,0.0,100,0.00,CLR,,0.01,WeatherDisplay:10.37,2013-06-25 09:45:00,
2013-06-25 05:55:00,65.7,65.7,29.91,NNE,17,0.0,0.0,100,0.00,CLR,,0.01,WeatherDisplay:10.37,2013-06-25 09:55:00,
2013-06-25 06:00:00,65.6,65.6,29.91,NNE,17,0.0,0.0,100,0.00,CLR,,0.01,WeatherDisplay:10.37,2013-06-25 10:00:00,
2013-06-25 06:10:00,65.7,65.7,29.90,NNE,17,0.0,0.0,100,0.00,CLR,,0.01,WeatherDisplay:10.37,2013-06-25 10:10:00,
2013-06-25 06:15:00,65.7,65.7,29.90,NNE,17,0.0,0.0,100,0.00,CLR,,0.01,WeatherDisplay:10.37,2013-06-25 10:15:00,
2013-06-25 06:25:00,65.7,65.7,29.90,NNE,17,0.0,0.0,100,0.00,CLR,,0.01,WeatherDisplay:10.37,2013-06-25 10:25:00,
2013-06-25 06:30:00,65.8,65.8,29.90,NNE,17,0.0,0.0,100,0.00,CLR,,0.01,WeatherDisplay:10.37,2013-06-25 10:30:00,
2013-06-25 06:40:00,66.0,66.0,29.90,NNE,17,0.0,0.0,100,0.00,CLR,,0.01,WeatherDisplay:10.37,2013-06-25 10:40:00,
2013-06-25 06:45:00,66.1,66.1,29.90,NNE,17,0.0,0.0,100,0.00,CLR,,0.01,WeatherDisplay:10.37,2013-06-25 10:45:00,
2013-06-25 06:55:00,66.2,66.2,29.90,NNE,17,0.0,0.0,100,0.00,CLR,,0.01,WeatherDisplay:10.37,2013-06-25 10:55:00,
2013-06-25 07:00:00,66.3,66.3,29.90,NNE,17,0.0,0.0,100,0.00,CLR,,0.01,WeatherDisplay:10.37,2013-06-25 11:00:00,
2013-06-25 07:10:00,66.7,66.7,29.90,NNE,17,0.0,0.0,100,0.00,CLR,,0.01,WeatherDisplay:10.37,2013-06-25 11:10:00,
2013-06-25 07:15:00,67.0,67.0,29.90,NNE,17,0.0,0.0,100,0.00,CLR,,0.01,WeatherDisplay:10.37,2013-06-25 11:15:00,
2013-06-25 07:25:00,67.5,67.5,29.90,NNE,17,0.0,2.0,100,0.00,CLR,,0.01,WeatherDisplay:10.37,2013-06-25 11:25:00,
2013-06-25 07:30:00,68.0,68.0,29.90,NNE,19,0.0,2.0,100,0.00,CLR,,0.01,WeatherDisplay:10.37,2013-06-25 11:30:00,
2013-06-25 07:40:00,69.2,69.2,29.90,North,358,5.0,9.0,100,0.00,CLR,,0.01,WeatherDisplay:10.37,2013-06-25 11:40:00,
2013-06-25 07:45:00,69.9,69.9,29.90,North,4,0.0,8.0,100,0.00,CLR,,0.01,WeatherDisplay:10.37,2013-06-25 11:45:00,
2013-06-25 07:55:00,71.4,71.4,29.90,NNW,333,2.0,7.0,100,0.00,CLR,,0.01,WeatherDisplay:10.37,2013-06-25 11:55:00,
2013-06-25 08:00:00,71.8,71.8,29.90,NW,325,5.0,7.0,100,0.00,CLR,,0.01,WeatherDisplay:10.37,2013-06-25 12:00:00,
2013-06-25 08:10:00,73.0,73.0,29.90,NNW,348,6.0,7.0,100,0.00,CLR,,0.01,WeatherDisplay:10.37,2013-06-25 12:10:00,
2013-06-25 08:15:00,73.4,73.4,29.90,NNW,329,1.0,8.0,100,0.00,CLR,,0.01,WeatherDisplay:10.37,2013-06-25 12:15:00,
2013-06-25 08:25:00,74.5,74.5,29.89,North,356,0.0,6.0,100,0.00,CLR,,0.01,WeatherDisplay:10.37,2013-06-25 12:25:00,
2013-06-25 08:30:00,74.9,74.9,29.89,North,352,0.0,3.0,100,0.00,CLR,,0.01,WeatherDisplay:10.37,2013-06-25 12:30:00,
2013-06-25 08:40:00,75.3,74.7,29.89,NW,310,5.0,7.0,98,0.00,CLR,,0.01,WeatherDisplay:10.37,2013-06-25 12:40:00,
2013-06-25 08:45:00,75.5,74.6,29.89,North,350,1.0,9.0,97,0.00,CLR,,0.01,WeatherDisplay:10.37,2013-06-25 12:45:00,
2013-06-25 08:55:00,75.6,74.7,29.89,NNW,345,3.0,10.0,97,0.00,CLR,,0.01,WeatherDisplay:10.37,2013-06-25 12:55:00,
2013-06-25 09:00:00,75.9,74.7,29.89,NNW,342,5.0,10.0,96,0.00,CLR,,0.01,WeatherDisplay:10.37,2013-06-25 13:00:00,
2013-06-25 09:10:00,76.0,75.1,29.89,NNW,327,0.0,9.0,97,0.00,CLR,,0.01,WeatherDisplay:10.37,2013-06-25 13:10:00,
2013-06-25 09:15:00,76.0,74.8,29.89,NNW,345,5.0,12.0,96,0.00,CLR,,0.01,WeatherDisplay:10.37,2013-06-25 13:15:00,
2013-06-25 09:25:00,76.3,74.8,29.89,North,358,3.0,9.0,95,0.00,CLR,,0.01,WeatherDisplay:10.37,2013-06-25 13:25:00,
2013-06-25 09:30:00,76.5,74.9,29.89,North,350,3.0,7.0,95,0.00,CLR,,0.01,WeatherDisplay:10.37,2013-06-25 13:30:00,
2013-06-25 09:40:00,77.3,75.8,29.89,NNE,18,0.0,5.0,95,0.00,CLR,,0.01,WeatherDisplay:10.37,2013-06-25 13:40:00,
2013-06-25 09:45:00,77.8,76.0,29.89,WNW,296,3.0,8.0,94,0.00,CLR,,0.01,WeatherDisplay:10.37,2013-06-25 13:45:00,
2013-06-25 09:55:00,78.7,77.2,29.89,WNW,291,0.0,3.0,95,0.00,CLR,,0.01,WeatherDisplay:10.37,2013-06-25 13:55:00,
2013-06-25 10:00:00,79.0,76.4,29.89,NW,315,1.0,8.0,92,0.00,CLR,,0.01,WeatherDisplay:10.37,2013-06-25 14:00:00,
2013-06-25 10:10:00,79.8,77.0,29.90,WNW,296,1.0,6.0,91,0.00,CLR,,0.01,WeatherDisplay:10.37,2013-06-25 14:10:00,
2013-06-25 10:15:00,79.9,77.0,29.90,NNW,337,2.0,8.0,91,0.00,CLR,,0.01,WeatherDisplay:10.37,2013-06-25 14:15:00,
2013-06-25 10:25:00,79.9,76.0,29.90,North,358,6.0,10.0,88,0.00,CLR,,0.01,WeatherDisplay:10.37,2013-06-25 14:25:00,
2013-06-25 10:30:00,80.0,76.5,29.90,NNW,332,5.0,8.0,89,0.00,CLR,,0.01,WeatherDisplay:10.37,2013-06-25 14:30:00,
2013-06-25 10:40:00,80.4,76.5,29.91,NW,326,1.0,9.0,88,0.00,CLR,,0.01,WeatherDisplay:10.37,2013-06-25 14:40:00,
2013-06-25 10:45:00,80.8,77.0,29.91,NW,324,2.0,9.0,88,0.00,CLR,,0.01,WeatherDisplay:10.37,2013-06-25 14:45:00,
2013-06-25 10:55:00,81.4,76.4,29.91,NNW,344,5.0,9.0,85,0.00,CLR,,0.01,WeatherDisplay:10.37,2013-06-25 14:55:00,
2013-06-25 11:00:00,81.8,76.8,29.91,North,356,5.0,7.0,85,0.00,CLR,,0.01,WeatherDisplay:10.37,2013-06-25 15:00:00,
2013-06-25 11:10:00,82.1,76.8,29.91,North,359,6.0,9.0,84,0.00,CLR,,0.01,WeatherDisplay:10.37,2013-06-25 15:10:00,
2013-06-25 11:15:00,82.3,77.7,29.91,NNW,347,2.0,8.0,86,0.00,CLR,,0.01,WeatherDisplay:10.37,2013-06-25 15:15:00,
2013-06-25 11:25:00,82.8,77.1,29.91,NW,320,3.0,10.0,83,0.00,CLR,,0.01,WeatherDisplay:10.37,2013-06-25 15:25:00,
2013-06-25 11:30:00,82.8,77.1,29.91,North,351,2.0,7.0,83,0.00,CLR,,0.01,WeatherDisplay:10.37,2013-06-25 15:30:00,
2013-06-25 11:40:00,83.3,78.0,29.91,WSW,244,6.0,10.0,84,0.00,CLR,,0.01,WeatherDisplay:10.37,2013-06-25 15:40:00,
2013-06-25 11:45:00,83.5,78.2,29.91,West,262,3.0,10.0,84,0.00,CLR,,0.01,WeatherDisplay:10.37,2013-06-25 15:45:00,
2013-06-25 11:55:00,83.6,77.9,29.91,West,264,7.0,12.0,83,0.00,CLR,,0.01,WeatherDisplay:10.37,2013-06-25 15:55:00,
2013-06-25 12:00:00,83.8,78.5,29.91,WSW,254,3.0,11.0,84,0.00,CLR,,0.01,WeatherDisplay:10.37,2013-06-25 16:00:00,
2013-06-25 12:10:00,84.0,77.5,29.91,NW,304,3.0,8.0,81,0.00,CLR,,0.01,WeatherDisplay:10.37,2013-06-25 16:10:00,
2013-06-25 12:15:00,84.1,76.9,29.91,WNW,292,0.0,12.0,79,0.00,CLR,,0.01,WeatherDisplay:10.37,2013-06-25 16:15:00,
2013-06-25 12:25:00,84.2,77.4,29.90,West,262,1.0,9.0,80,0.00,CLR,,0.01,WeatherDisplay:10.37,2013-06-25 16:25:00,
2013-06-25 12:30:00,84.5,78.4,29.90,West,261,2.0,10.0,82,0.00,CLR,,0.01,WeatherDisplay:10.37,2013-06-25 16:30:00,
2013-06-25 12:40:00,84.9,76.8,29.90,WNW,302,1.0,7.0,77,0.00,CLR,,0.01,WeatherDisplay:10.37,2013-06-25 16:40:00,
2013-06-25 12:45:00,85.4,77.7,29.90,NW,319,5.0,7.0,78,0.00,CLR,,0.01,WeatherDisplay:10.37,2013-06-25 16:45:00,
2013-06-25 12:55:00,85.7,76.4,29.90,NW,312,3.0,8.0,74,0.00,CLR,,0.01,WeatherDisplay:10.37,2013-06-25 16:55:00,
2013-06-25 13:00:00,85.6,75.5,29.89,NNW,332,2.0,9.0,72,0.00,CLR,,0.01,WeatherDisplay:10.37,2013-06-25 17:00:00,
2013-06-25 13:10:00,86.4,76.7,29.89,NW,321,7.0,10.0,73,0.00,CLR,,0.01,WeatherDisplay:10.37,2013-06-25 17:10:00,
2013-06-25 13:15:00,86.3,74.9,29.89,NNW,343,2.0,9.0,69,0.00,CLR,,0.01,WeatherDisplay:10.37,2013-06-25 17:15:00,
2013-06-25 13:25:00,86.3,75.8,29.88,NNW,327,3.0,12.0,71,0.00,CLR,,0.01,WeatherDisplay:10.37,2013-06-25 17:25:00,
2013-06-25 13:30:00,86.6,75.2,29.88,NNW,343,2.0,8.0,69,0.00,CLR,,0.01,WeatherDisplay:10.37,2013-06-25 17:30:00,
2013-06-25 13:40:00,86.4,74.6,29.87,North,3,5.0,12.0,68,0.00,CLR,,0.01,WeatherDisplay:10.37,2013-06-25 17:40:00,
2013-06-25 13:45:00,86.4,75.0,29.87,North,351,2.0,12.0,69,0.00,CLR,,0.01,WeatherDisplay:10.37,2013-06-25 17:45:00,
2013-06-25 13:55:00,86.5,74.7,29.87,NNW,334,3.0,10.0,68,0.00,CLR,,0.01,WeatherDisplay:10.37,2013-06-25 17:55:00,
2013-06-25 14:00:00,86.5,74.2,29.86,NW,318,2.0,9.0,67,0.00,CLR,,0.01,WeatherDisplay:10.37,2013-06-25 18:00:00,
2013-06-25 14:10:00,86.4,75.1,29.85,NW,316,5.0,12.0,69,0.00,CLR,,0.01,WeatherDisplay:10.37,2013-06-25 18:10:00,
2013-06-25 14:15:00,86.5,73.8,29.85,NNW,332,2.0,9.0,66,0.00,CLR,,0.01,WeatherDisplay:10.37,2013-06-25 18:15:00,
2013-06-25 14:25:00,86.7,75.3,29.85,West,265,5.0,13.0,69,0.00,CLR,,0.01,WeatherDisplay:10.37,2013-06-25 18:25:00,
2013-06-25 14:30:00,86.6,73.4,29.85,West,269,2.0,12.0,65,0.00,CLR,,0.01,WeatherDisplay:10.37,2013-06-25 18:30:00,
2013-06-25 14:40:00,85.9,74.1,29.84,WSW,238,1.0,11.0,68,0.00,CLR,,0.01,WeatherDisplay:10.37,2013-06-25 18:40:00,
2013-06-25 14:45:00,86.2,74.4,29.84,WSW,239,1.0,8.0,68,0.00,CLR,,0.01,WeatherDisplay:10.37,2013-06-25 18:45:00,
2013-06-25 14:55:00,86.6,73.4,29.84,WNW,299,3.0,13.0,65,0.00,CLR,,0.01,WeatherDisplay:10.37,2013-06-25 18:55:00,
2013-06-25 15:00:00,86.5,73.8,29.83,WNW,294,1.0,10.0,66,0.00,CLR,,0.01,WeatherDisplay:10.37,2013-06-25 19:00:00,
2013-06-25 15:10:00,86.6,73.4,29.84,NW,317,5.0,18.0,65,0.00,CLR,,0.01,WeatherDisplay:10.37,2013-06-25 19:10:00,
2013-06-25 15:15:00,86.5,73.3,29.83,NW,304,5.0,17.0,65,0.00,CLR,,0.01,WeatherDisplay:10.37,2013-06-25 19:15:00,
2013-06-25 15:25:00,85.5,74.6,29.83,WSW,256,7.0,12.0,70,0.00,CLR,,0.01,WeatherDisplay:10.37,2013-06-25 19:25:00,
2013-06-25 15:30:00,85.6,74.7,29.83,WSW,246,6.0,10.0,70,0.00,CLR,,0.01,WeatherDisplay:10.37,2013-06-25 19:30:00,
2013-06-25 15:40:00,86.1,73.4,29.83,WSW,253,7.0,13.0,66,0.00,CLR,,0.01,WeatherDisplay:10.37,2013-06-25 19:40:00,
2013-06-25 15:45:00,86.1,74.7,29.82,West,264,0.0,6.0,69,0.00,CLR,,0.01,WeatherDisplay:10.37,2013-06-25 19:45:00,
2013-06-25 15:55:00,84.8,73.5,29.82,WNW,289,0.0,7.0,69,0.00,CLR,,0.01,WeatherDisplay:10.37,2013-06-25 19:55:00,
2013-06-25 16:00:00,84.2,73.3,29.82,NW,312,2.0,6.0,70,0.00,CLR,,0.01,WeatherDisplay:10.37,2013-06-25 20:00:00,
2013-06-25 16:10:00,83.4,74.7,29.83,NNW,330,0.0,3.0,75,0.00,CLR,,0.01,WeatherDisplay:10.37,2013-06-25 20:10:00,
2013-06-25 16:15:00,83.2,75.2,29.82,NNE,24,0.0,0.0,77,0.00,CLR,,0.01,WeatherDisplay:10.37,2013-06-25 20:15:00,
2013-06-25 16:25:00,82.8,73.6,29.82,NW,317,1.0,7.0,74,0.00,CLR,,0.01,WeatherDisplay:10.37,2013-06-25 20:25:00,
2013-06-25 16:30:00,82.6,73.5,29.82,NW,321,3.0,7.0,74,0.00,CLR,,0.01,WeatherDisplay:10.37,2013-06-25 20:30:00,
2013-06-25 16:40:00,82.9,74.2,29.82,NNW,338,0.0,8.0,75,0.00,CLR,,0.01,WeatherDisplay:10.37,2013-06-25 20:40:00,
2013-06-25 16:45:00,83.1,74.0,29.81,NNE,25,1.0,7.0,74,0.00,CLR,,0.01,WeatherDisplay:10.37,2013-06-25 20:45:00,
2013-06-25 16:55:00,82.5,72.6,29.82,NNW,329,3.0,7.0,72,0.00,CLR,,0.01,WeatherDisplay:10.37,2013-06-25 20:55:00,
2013-06-25 17:00:00,82.3,73.2,29.82,NNW,344,1.0,9.0,74,0.00,CLR,,0.01,WeatherDisplay:10.37,2013-06-25 21:00:00,
2013-06-25 17:10:00,81.4,73.1,29.82,NNW,345,0.0,8.0,76,0.00,CLR,,0.01,WeatherDisplay:10.37,2013-06-25 21:10:00,
2013-06-25 17:15:00,81.3,73.0,29.82,WNW,289,5.0,11.0,76,0.00,CLR,,0.01,WeatherDisplay:10.37,2013-06-25 21:15:00,
2013-06-25 17:25:00,80.8,71.3,29.81,NW,318,7.0,14.0,73,0.00,CLR,,0.01,WeatherDisplay:10.37,2013-06-25 21:25:00,
2013-06-25 17:30:00,80.5,71.4,29.81,NW,326,8.0,14.0,74,0.00,CLR,,0.01,WeatherDisplay:10.37,2013-06-25 21:30:00,
2013-06-25 17:40:00,79.4,73.0,29.81,North,355,5.0,10.0,81,0.00,CLR,,0.01,WeatherDisplay:10.37,2013-06-25 21:40:00,
2013-06-25 17:45:00,78.2,74.0,29.82,North,0,6.0,11.0,87,0.00,CLR,,0.01,WeatherDisplay:10.37,2013-06-25 21:45:00,
2013-06-25 17:55:00,76.0,74.2,29.83,North,7,7.0,13.0,94,0.00,RA,,0.02,WeatherDisplay:10.37,2013-06-25 21:55:00,
2013-06-25 18:00:00,75.2,74.0,29.83,North,357,3.0,12.0,96,0.00,CLR,,0.02,WeatherDisplay:10.37,2013-06-25 22:00:00,
2013-06-25 18:10:00,74.1,73.5,29.83,North,349,8.0,14.0,98,0.00,CLR,,0.02,WeatherDisplay:10.37,2013-06-25 22:10:00,
2013-06-25 18:15:00,73.6,73.3,29.83,NNW,346,8.0,18.0,99,0.01,RA,,0.03,WeatherDisplay:10.37,2013-06-25 22:15:00,
2013-06-25 18:25:00,72.8,72.8,29.83,North,351,6.0,12.0,100,0.01,RA,,0.04,WeatherDisplay:10.37,2013-06-25 22:25:00,
2013-06-25 18:30:00,72.5,72.5,29.83,North,5,6.0,12.0,100,0.01,RA,,0.05,WeatherDisplay:10.37,2013-06-25 22:30:00,
2013-06-25 18:40:00,72.2,72.2,29.82,NNE,17,2.0,9.0,100,0.01,RA,,0.06,WeatherDisplay:10.37,2013-06-25 22:40:00,
2013-06-25 18:45:00,72.2,72.2,29.81,NNE,18,0.0,7.0,100,0.00,RA,,0.06,WeatherDisplay:10.37,2013-06-25 22:45:00,
2013-06-25 18:55:00,72.1,72.1,29.82,NNE,33,0.0,0.0,100,0.00,CLR,,0.06,WeatherDisplay:10.37,2013-06-25 22:55:00,
2013-06-25 19:00:00,71.8,71.8,29.82,NE,35,0.0,0.0,100,0.00,CLR,,0.06,WeatherDisplay:10.37,2013-06-25 23:00:00,
2013-06-25 19:10:00,71.3,71.3,29.82,NE,35,0.0,0.0,100,0.00,CLR,,0.06,WeatherDisplay:10.37,2013-06-25 23:10:00,
2013-06-25 19:15:00,71.2,71.2,29.82,NE,35,0.0,0.0,100,0.00,CLR,,0.06,WeatherDisplay:10.37,2013-06-25 23:15:00,
2013-06-25 19:25:00,70.9,70.9,29.84,NE,35,0.0,0.0,100,0.00,CLR,,0.06,WeatherDisplay:10.37,2013-06-25 23:25:00,
2013-06-25 19:30:00,70.6,70.6,29.85,NNE,16,0.0,6.0,100,0.00,CLR,,0.06,WeatherDisplay:10.37,2013-06-25 23:30:00,
2013-06-25 19:40:00,69.6,69.6,29.84,North,10,3.0,10.0,100,0.02,RA,,0.09,WeatherDisplay:10.37,2013-06-25 23:40:00,
2013-06-25 19:45:00,69.3,69.3,29.83,NNE,21,0.0,7.0,100,0.02,RA,,0.11,WeatherDisplay:10.37,2013-06-25 23:45:00,
2013-06-25 19:55:00,68.9,68.9,29.82,NE,37,0.0,0.0,100,0.01,RA,,0.12,WeatherDisplay:10.37,2013-06-25 23:55:00,
2013-06-25 20:00:00,68.9,68.9,29.82,NE,54,0.0,0.0,100,0.00,RA,,0.12,WeatherDisplay:10.37,2013-06-26 00:00:00,
2013-06-25 20:10:00,68.7,68.7,29.81,NE,54,0.0,0.0,100,0.00,CLR,,0.12,WeatherDisplay:10.37,2013-06-26 00:10:00,
2013-06-25 20:15:00,68.6,68.6,29.81,NE,48,0.0,3.0,100,0.00,CLR,,0.12,WeatherDisplay:10.37,2013-06-26 00:15:00,
2013-06-25 20:25:00,68.5,68.5,29.80,NNE,24,0.0,0.0,100,0.00,CLR,,0.12,WeatherDisplay:10.37,2013-06-26 00:25:00,
2013-06-25 20:30:00,68.4,68.4,29.80,NNE,24,0.0,0.0,100,0.00,CLR,,0.12,WeatherDisplay:10.37,2013-06-26 00:30:00,
2013-06-25 20:40:00,68.4,68.4,29.80,NNE,24,0.0,0.0,100,0.00,CLR,,0.12,WeatherDisplay:10.37,2013-06-26 00:40:00,
2013-06-25 20:45:00,68.3,68.3,29.80,NNE,24,0.0,0.0,100,0.00,CLR,,0.12,WeatherDisplay:10.37,2013-06-26 00:45:00,
2013-06-25 20:55:00,68.1,68.1,29.80,NNE,24,0.0,0.0,100,0.00,CLR,,0.12,WeatherDisplay:10.37,2013-06-26 00:55:00,
2013-06-25 21:00:00,68.1,68.1,29.80,NNE,24,0.0,0.0,100,0.01,RA,,0.13,WeatherDisplay:10.37,2013-06-26 01:00:00,
2013-06-25 21:10:00,67.9,67.9,29.79,NNE,24,0.0,0.0,100,0.00,CLR,,0.13,WeatherDisplay:10.37,2013-06-26 01:10:00,
2013-06-25 21:15:00,67.9,67.9,29.79,NNE,24,0.0,0.0,100,0.00,CLR,,0.13,WeatherDisplay:10.37,2013-06-26 01:15:00,
2013-06-25 21:25:00,67.8,67.8,29.79,NNE,24,0.0,0.0,100,0.00,CLR,,0.13,WeatherDisplay:10.37,2013-06-26 01:25:00,
2013-06-25 21:30:00,67.7,67.7,29.79,NNE,24,0.0,0.0,100,0.00,CLR,,0.13,WeatherDisplay:10.37,2013-06-26 01:30:00,
2013-06-25 21:40:00,67.6,67.6,29.79,NNE,24,0.0,0.0,100,0.00,CLR,,0.13,WeatherDisplay:10.37,2013-06-26 01:40:00,
2013-06-25 21:45:00,67.5,67.5,29.79,NNE,24,0.0,0.0,100,0.00,CLR,,0.13,WeatherDisplay:10.37,2013-06-26 01:45:00,
2013-06-25 21:55:00,67.7,67.7,29.78,NNE,24,0.0,0.0,100,0.00,CLR,,0.13,WeatherDisplay:10.37,2013-06-26 01:55:00,
2013-06-25 22:00:00,67.6,67.6,29.78,NNE,24,0.0,0.0,100,0.00,CLR,,0.13,WeatherDisplay:10.37,2013-06-26 02:00:00,
2013-06-25 22:10:00,67.4,67.4,29.79,NNE,24,0.0,0.0,100,0.00,CLR,,0.13,WeatherDisplay:10.37,2013-06-26 02:10:00,
2013-06-25 22:15:00,67.4,67.4,29.79,NNE,24,0.0,0.0,100,0.00,CLR,,0.13,WeatherDisplay:10.37,2013-06-26 02:15:00,
2013-06-25 22:25:00,67.4,67.4,29.79,NNE,24,0.0,0.0,100,0.00,CLR,,0.13,WeatherDisplay:10.37,2013-06-26 02:25:00,
2013-06-25 22:30:00,67.4,67.4,29.79,NNE,24,0.0,0.0,100,0.00,CLR,,0.13,WeatherDisplay:10.37,2013-06-26 02:30:00,
2013-06-25 22:40:00,67.4,67.4,29.79,NNE,24,0.0,0.0,100,0.00,CLR,,0.13,WeatherDisplay:10.37,2013-06-26 02:40:00,
2013-06-25 22:45:00,67.4,67.4,29.79,NNE,24,0.0,0.0,100,0.00,CLR,,0.13,WeatherDisplay:10.37,2013-06-26 02:45:00,
2013-06-25 22:55:00,67.3,67.3,29.79,NNE,24,0.0,0.0,100,0.00,CLR,,0.13,WeatherDisplay:10.37,2013-06-26 02:55:00,
2013-06-25 23:00:00,67.3,67.3,29.79,NNE,24,0.0,0.0,100,0.00,CLR,,0.13,WeatherDisplay:10.37,2013-06-26 03:00:00,
2013-06-25 23:10:00,67.2,67.2,29.78,NNE,24,0.0,0.0,100,0.00,CLR,,0.13,WeatherDisplay:10.37,2013-06-26 03:10:00,
2013-06-25 23:15:00,67.2,67.2,29.78,NNE,24,0.0,0.0,100,0.00,CLR,,0.13,WeatherDisplay:10.37,2013-06-26 03:15:00,
2013-06-25 23:25:00,67.1,67.1,29.78,NNE,24,0.0,0.0,100,0.00,CLR,,0.13,WeatherDisplay:10.37,2013-06-26 03:25:00,
2013-06-25 23:30:00,67.0,67.0,29.78,NNE,24,0.0,0.0,100,0.00,CLR,,0.13,WeatherDisplay:10.37,2013-06-26 03:30:00,
2013-06-25 23:40:00,67.0,67.0,29.77,NNE,24,0.0,0.0,100,0.00,CLR,,0.13,WeatherDisplay:10.37,2013-06-26 03:40:00,
2013-06-25 23:45:00,67.0,67.0,29.77,NNE,24,0.0,0.0,100,0.00,CLR,,0.13,WeatherDisplay:10.37,2013-06-26 03:45:00,
2013-06-25 23:55:00,66.9,66.9,29.77,NNE,24,0.0,0.0,100,0.00,CLR,,0.13,WeatherDisplay:10.37,2013-06-26 03:55:00,